Regional Weather Roundup
Issued by NWS Green Bay, WI

Home | Current Version | Previous Version | Graphics & Text | Print | Product List | Glossary Off
Versions: 1 2 3 4 5 6 7 8 9 10 11 12 13 14 15 16 17 18 19 20 21 22 23 24 25 26 27 28 29 30 31 32 33 34 35 36 37 38 39 40 41 42 43 44 45 46 47 48 49 50

000
ASUS43 KGRB 171700
RWRGRB

NORTH-CENTRAL AND NORTHEAST WISCONSIN REGIONAL WEATHER ROUNDUP
NATIONAL WEATHER SERVICE GREEN BAY WI
1100 AM CST SUN DEC 17 2017

WIZ005-009-010>012-018-019-171800-
NORTH CENTRAL WISCONSIN

CITY           SKY/WX    TMP DP  RH WIND       PRES   REMARKS
IRONWOOD       NOT AVBL
MANITOWISH WTR NOT AVBL
ARBOR VITAE    NOT AVBL
EAGLE RIVER    CLOUDY    22  22 100 S3        30.06S FOG
LAND O LAKES   CLOUDY    23  22  96 S5        30.07F FOG
RHINELANDER    CLOUDY    24  24 100 S5        30.06F FOG
PHILLIPS       CLOUDY    25  24  96 S7        30.06F
ANTIGO         NOT AVBL
TOMAHAWK       NOT AVBL
MERRILL        CLOUDY    25  25  97 SE7       30.09F FOG
$$

WIZ013-073-171800-
NORTHEAST WISCONSIN

CITY           SKY/WX    TMP DP  RH WIND       PRES   REMARKS
IRON MOUNTAIN  CLOUDY    21  18  88 CALM      30.09F
MARINETTE      CLOUDY    30  26  85 SE8       30.13F
$$

WIZ017-030-035>037-045-171800-
CENTRAL WISCONSIN

CITY           SKY/WX    TMP DP  RH WIND       PRES   REMARKS
MEDFORD        NOT AVBL
WAUSAU         CLOUDY    25  24  96 E6        30.06F FOG
MOSINEE        NOT AVBL
MARSHFIELD     CLOUDY    25  25 100 E6        30.05F FOG
WISC RAPIDS    CLOUDY    27  24  89 SE6       30.08F FOG
STEVENS POINT  NOT AVBL
WAUPACA        CLOUDY    29  25  85 NE3       30.09F FOG
SHAWANO        CLOUDY    26  22  86 CALM      30.12F
CLINTONVILLE   NOT AVBL
WAUTOMA        CLOUDY    28  26  92 NE8       30.08F FOG
$$

WIZ038-039-048-051-171800-
FOX VALLEY

CITY           SKY/WX    TMP DP  RH WIND       PRES   REMARKS
NWS GREEN BAY  CLOUDY    29  24  82 N3        30.11F
APPLETON       CLOUDY    27  23  86 NE6       30.08F
OSHKOSH        CLOUDY    31  28  89 E8        30.08F FOG
FOND DU LAC    CLOUDY    32  26  78 E9        30.08F
$$

WIZ022-050-052-171800-
EAST CENTRAL WISCONSIN

CITY           SKY/WX    TMP DP  RH WIND       PRES   REMARKS
EPHRAIM        CLOUDY    29  25  86 SE8       30.11F
WASHINGTON ISL NOT AVBL
STURGEON BAY   CLOUDY    31  27  85 SE10      30.12F
MANITOWOC      CLOUDY    31  28  89 E7        30.11F
SHEBOYGAN      CLOUDY    30  28  92 E8        30.09F
$$

LMZ563-521-522-541>543-171800-
LAKESHORE

STATION/POSITION TIME  TEMP    WIND        PRES    VSBY  WAVE
                       AIR SEA DIR/SP/G                  HT/PER
                 (UTC) (F)     (DEG/KT/KT) (MB)    (MI)  (FT/S)
SHEBOYGAN LKSHOR 1600   30      90/ 10/ 13 1020.4F
KEWAUNEE LKSHORE 1630   31     120/  8/ 12 1019.4F
NORTHPORT PIER   1640   30     120/ 11/ 14 1020.3F
SISTER BAY LKSHO 1620   31     130/  9/ 12   N/A
MENOMINEE LKSHOR 1630   29     100/  9/ 11 1020.1F
$$




USA.gov is the U.S. government's official web portal to all federal, state and local government web resources and services.